Location: Moscow
(55.7500°N, 37.5830°E)
Time: 02:09:49
(UTC+03:00)

Tiros 1 - Pass Details

Date: 05 December 2021
Orbit: 630 x 663 km, 48.4° (Epoch: 20 January)

Event Time Altitude Azimuth Distance (km) Brightness Sun altitude
Rises 18:55:33 0° 215° (SW) 2,917 11.1 -23.3°
Reaches altitude 10° 18:58:24 10° 198° (SSW) 2,016 9.9 -23.7°
Enters shadow 19:00:40 18° 170° (S) 1,562 9.0 -24.0°
